ボアッティーニ彗星

C/2013 H2 ( Boattini )

English version
Home page
Updated on November 15, 2021

---------------------------------------------------------------------

・ プロフィール

発見日 2013年4月22日
発見光度 17.6等
発見者 A. Boattini (Catalina Sky Survey)

・ 写真集

・ 軌道要素

Epoch 2014 Jan. 23.0 TT = JDT 2456680.5
T 2014 Jan. 23.15882 TT                                 MPCW
q   7.4986290            (2000.0)            P               Q
z  -0.0002218      Peri.   35.99490     -0.46426790     -0.42427652
 +/-0.0000019      Node   262.74578     -0.87729611     +0.34088880
e   1.0016629      Incl.  128.39629     +0.12168339     +0.83891850
From 191 observations 2013 Apr. 22-2015 June 11, mean residual 0".6.

・ 光度変化

        m1 = 3.5 + 5 logΔ + 12.0 log r(t + 200)

---------------------------------------------------------------------

軌道要素はM.P.E.C. 2015-M77に掲載されたものです。
光度グラフはComet for Windowsで作成したものです。

---------------------------------------------------------------------

Copyright(C) Seiichi Yoshida (comet@aerith.net). All rights reserved.